Theta_e
313 316 317 317 315 314 313 312 312 312 312 312 311 312 312 311 310 310 310 310 310 309 309 311 310 310 310 309 309 309 309 309 309 309 309 309 309 309 309 310 310 310 310 310 308 308 309 309 309 309 309 307 306 305 305 305 305 305 305 304 303 302 301 301 301 301 301 300 300 298 298 298 298 297 296 296 296 297 297 296 296 295 295 295 295 295
311 315 317 317 314 313 312 311 310 310 311 311 312 312 311 311 310 310 310 310 309 308 310 311 310 310 309 310 310 310 309 309 309 309 310 310 310 310 310 310 310 310 311 311 310 309 308 308 308 308 308 306 305 305 305 305 305 305 304 304 303 302 301 301 301 301 301 301 301 300 299 299 298 297 297 297 297 297 296 296 296 295 295 295 295 295
314 315 315 313 312 312 311 310 310 311 312 312 312 312 312 311 311 311 311 311 310 310 313 313 311 309 310 310 309 310 310 309 310 310 310 311 310 311 310 310 310 311 311 311 311 310 307 307 308 307 307 306 305 305 305 305 304 304 304 303 303 302 301 301 301 301 301 301 300 300 299 299 298 297 297 297 297 296 296 295 295 295 295 294 294 294
318 320 317 311 310 311 312 311 311 312 312 312 312 312 313 311 311 312 313 315 312 310 312 312 309 309 310 310 309 309 309 309 310 310 310 311 310 311 311 311 311 310 311 310 311 311 308 307 306 305 306 306 305 305 304 304 303 303 304 303 302 302 301 301 300 300 300 300 299 299 299 298 298 297 297 297 296 296 295 295 295 295 295 294 294 294
316 321 317 312 312 312 312 312 312 313 312 312 314 313 312 312 311 311 312 314 312 312 314 311 309 312 312 313 314 312 310 310 310 310 310 310 309 310 311 311 311 310 310 311 310 311 310 308 305 304 305 305 304 304 304 304 304 304 304 303 303 302 301 301 300 300 299 299 298 298 298 297 297 297 296 296 296 295 295 295 296 296 296 296 295 295
314 315 312 314 315 311 312 313 314 315 312 312 316 314 312 311 311 312 312 312 313 317 316 311 312 314 314 316 319 320 318 316 314 313 312 310 309 309 310 310 310 310 311 313 312 311 311 309 306 304 304 304 304 305 306 305 305 304 304 303 302 301 301 300 300 299 299 299 298 297 297 296 296 295 295 296 295 295 296 297 297 297 297 297 297 296
314 312 310 313 315 313 315 315 314 313 311 313 318 318 313 311 312 313 312 312 316 319 313 312 316 315 314 315 318 320 319 318 315 314 312 311 310 310 310 310 310 311 311 312 312 311 310 309 308 306 304 304 305 306 306 305 304 304 303 302 302 301 300 300 299 299 299 298 298 298 297 297 296 296 296 296 296 297 298 297 297 297 297 297 297 297
314 312 310 312 314 316 316 314 314 311 312 316 318 319 318 315 314 313 312 312 317 317 312 314 315 315 314 314 315 317 316 317 314 312 311 311 311 309 310 310 310 311 311 311 312 311 310 309 308 305 303 304 305 304 304 303 303 302 302 302 301 301 300 299 299 299 298 298 298 297 297 297 297 297 296 296 296 297 297 296 296 296 297 297 297 296
312 312 314 314 314 317 316 315 316 312 313 317 315 315 316 315 314 313 313 315 316 315 315 315 313 316 318 314 315 315 314 317 316 314 314 312 313 312 311 311 310 310 310 312 312 311 312 309 304 301 301 302 302 302 302 301 302 301 301 301 301 300 299 299 299 298 298 298 298 297 297 297 297 297 297 296 296 296 295 295 295 295 295 295 295 296
310 311 314 317 316 315 315 316 318 315 314 315 313 314 318 320 318 314 314 317 318 317 317 317 314 316 318 316 317 314 314 319 317 317 317 313 314 315 313 312 311 310 310 311 310 309 309 305 300 299 299 299 300 301 301 301 301 301 301 301 300 300 299 298 298 298 298 298 298 297 297 297 297 297 296 296 295 295 295 295 294 294 294 294 294 295
310 308 310 315 315 313 314 314 314 315 312 311 314 317 321 322 318 317 319 317 319 318 316 318 316 314 317 319 322 318 317 319 316 317 320 317 315 314 312 312 311 311 311 312 310 308 306 301 298 298 298 298 298 299 300 300 300 300 300 300 299 299 298 298 298 298 298 297 297 297 297 297 297 297 296 296 295 295 294 294 294 294 294 294 294 294
309 308 311 316 314 312 312 310 310 311 309 312 319 317 316 320 319 322 323 317 318 321 318 319 316 313 317 318 318 318 317 315 312 313 316 316 316 314 312 313 314 314 314 315 313 309 308 305 301 298 297 296 297 298 299 299 299 299 299 299 298 298 298 298 297 297 297 297 297 297 297 297 297 297 296 296 295 295 294 294 294 293 293 293 293 293
315 314 312 312 312 310 310 312 313 312 310 312 316 314 314 320 320 322 323 318 319 322 318 316 314 312 315 314 313 314 313 313 313 312 312 313 314 314 315 316 318 318 316 315 314 312 313 311 306 300 296 295 295 297 297 298 298 299 298 298 298 298 297 297 297 297 297 297 297 297 297 297 297 297 297 296 296 295 295 294 294 293 293 293 293 293
320 318 311 308 311 311 311 314 315 316 314 312 314 316 318 319 318 321 324 319 318 322 316 311 313 315 315 316 317 315 312 313 313 313 314 314 314 314 316 318 320 319 316 313 315 317 316 313 310 302 295 293 295 296 297 297 298 298 298 297 297 297 297 297 297 297 297 297 297 297 297 297 297 297 297 296 296 295 295 295 294 294 294 293 294 294
318 320 318 314 314 313 310 311 317 323 318 312 315 319 319 321 321 321 323 320 319 322 316 308 313 320 319 318 318 314 313 314 313 313 312 315 318 316 316 318 318 317 315 315 317 317 314 311 306 299 294 294 296 296 296 297 298 298 298 297 297 297 297 297 297 297 297 297 297 297 297 297 297 297 296 296 296 296 296 295 295 295 294 295 295 295
314 321 323 315 311 311 311 311 316 322 319 313 315 317 316 320 322 318 319 320 318 319 315 311 316 322 318 314 313 312 313 313 312 312 310 314 319 317 317 319 317 316 317 318 316 313 312 308 299 293 293 295 296 296 296 297 298 298 298 298 297 297 297 297 297 297 297 297 297 297 297 296 296 296 296 296 295 295 296 296 295 295 295 296 296 295
316 320 320 311 308 311 313 312 311 315 318 315 313 315 315 318 320 317 318 318 316 317 317 315 318 318 314 316 317 315 316 314 312 311 310 312 316 315 317 320 317 316 314 313 314 313 311 309 300 293 293 295 295 296 297 297 298 298 298 298 298 297 297 297 297 297 297 296 296 296 296 296 296 296 296 296 295 295 295 295 295 295 295 295 295 294
317 318 317 312 312 312 309 311 312 313 316 315 316 316 313 316 319 316 316 318 318 318 319 317 318 317 315 320 324 320 317 316 315 314 312 314 315 313 315 318 315 315 313 311 313 311 307 306 300 294 293 294 295 295 296 297 297 297 298 298 298 298 297 297 297 297 296 296 296 296 296 296 296 296 296 296 295 295 295 295 295 295 294 294 294 294
317 315 317 316 315 313 309 311 315 315 313 312 316 316 313 317 319 315 316 319 318 318 319 317 317 316 315 317 318 316 314 315 316 316 316 315 313 311 312 313 312 312 309 306 305 303 300 300 297 294 294 294 294 294 294 295 295 295 296 297 297 297 297 297 297 296 296 296 296 296 296 296 296 296 296 296 295 295 295 295 294 294 294 294 294 294
318 316 319 317 315 315 314 315 316 318 315 309 311 313 312 315 316 315 318 320 318 318 319 318 317 317 317 315 314 314 314 313 314 315 316 315 313 311 310 309 307 305 302 300 299 298 298 298 296 295 295 295 295 295 295 294 294 294 294 295 295 296 296 296 296 295 295 295 295 295 295 295 296 295 295 295 295 295 295 294 294 294 294 294 294 294
317 317 317 317 317 316 316 317 316 318 319 313 312 313 312 313 315 315 316 316 316 316 317 319 318 318 318 316 314 314 314 313 312 312 314 313 310 307 305 303 301 299 298 298 297 297 297 296 296 296 296 296 296 296 295 295 295 295 294 294 294 294 294 295 295 295 294 294 294 295 295 295 295 295 295 295 294 295 294 294 294 294 294 293 293 293
319 320 317 317 319 316 316 318 316 317 319 317 316 316 313 313 316 316 316 316 315 315 316 318 317 319 322 320 315 313 314 314 310 308 308 307 303 301 300 298 298 297 297 296 296 296 296 296 295 295 296 296 296 296 296 296 295 295 295 295 294 293 293 293 294 294 294 294 294 294 294 294 294 294 294 294 294 294 294 294 294 294 294 293 293 293
319 319 319 318 318 317 316 317 316 315 317 316 316 317 316 314 314 316 317 317 316 316 317 318 317 319 320 317 314 314 314 310 305 302 303 301 299 298 297 297 297 296 295 295 295 295 295 295 294 295 295 295 295 295 295 295 295 295 296 296 295 294 294 294 294 294 294 294 294 294 294 293 293 293 293 293 293 294 294 294 294 294 293 293 293 292
315 316 318 318 317 318 319 318 316 314 314 316 315 316 316 314 315 315 314 316 317 317 318 318 318 319 320 319 316 313 310 305 299 298 299 298 297 297 296 295 295 295 294 294 294 294 294 294 294 294 294 294 294 294 295 295 295 295 295 295 295 295 295 295 294 294 294 294 294 294 294 293 293 293 293 293 293 293 293 293 293 293 293 292 292 292
315 316 318 318 319 320 319 320 319 315 315 316 317 317 315 314 316 315 314 314 316 316 316 317 317 318 322 324 315 306 304 301 298 296 296 296 296 295 294 294 294 293 293 293 293 293 293 293 293 293 293 294 294 294 294 294 294 294 294 294 294 294 295 295 295 294 294 293 293 293 293 293 293 293 293 293 293 293 293 293 292 292 292 291 291 291
314 316 318 318 319 319 318 319 318 316 315 316 316 317 316 315 315 315 314 315 315 316 316 316 316 315 316 318 308 300 300 301 297 295 295 295 294 294 294 293 293 293 292 292 292 292 292 293 293 293 293 293 293 293 294 293 293 293 293 293 293 293 294 294 295 294 294 293 293 293 292 292 292 292 293 293 293 293 292 292 292 291 291 291 290 290
312 315 317 317 317 317 317 317 315 314 314 314 315 316 315 315 314 313 314 315 315 315 314 315 315 313 315 313 302 296 297 298 297 295 294 294 293 293 293 292 292 292 291 291 291 291 291 292 292 292 292 292 293 293 293 293 293 293 293 293 293 292 292 293 294 294 294 293 293 293 292 292 292 292 292 293 292 292 292 292 291 291 291 290 290 289
312 313 314 315 315 315 315 314 313 312 313 313 314 314 314 313 313 313 314 314 314 315 316 315 314 314 314 307 298 295 295 295 296 295 293 293 293 292 292 292 292 291 291 291 291 291 291 291 291 292 292 292 292 292 293 293 293 292 292 292 292 292 292 292 293 293 293 293 293 293 293 293 293 292 292 292 292 292 292 291 291 291 291 290 289 289
312 311 312 313 312 312 312 312 312 312 312 312 313 313 313 313 313 312 312 313 313 314 314 313 313 314 309 300 296 296 293 293 295 294 293 293 292 292 292 292 291 291 291 290 290 291 291 291 291 291 291 291 292 292 292 292 292 292 292 292 292 291 291 292 292 293 293 293 293 293 293 293 293 293 293 292 292 292 291 291 291 291 291 290 289 289
309 308 310 310 309 309 310 310 311 310 310 310 310 311 311 311 311 311 311 311 311 313 313 312 314 312 301 294 295 295 293 293 294 293 293 292 292 291 291 291 291 291 291 290 290 290 290 290 291 291 290 291 291 291 292 292 292 292 291 292 291 291 291 291 292 292 292 292 293 292 292 292 292 293 292 292 292 291 291 291 291 291 290 290 289 289
308 308 307 307 306 307 306 307 308 308 308 307 307 307 308 308 309 308 309 309 310 310 310 310 312 307 296 292 294 294 293 292 291 292 293 292 291 291 290 291 291 290 290 290 290 290 290 290 291 290 290 291 291 291 292 292 291 291 291 291 291 291 291 291 291 291 291 292 292 292 292 292 292 292 292 292 292 291 291 291 290 290 290 290 289 288
305 305 304 304 304 305 305 305 305 305 305 304 303 304 304 304 304 304 305 306 307 307 306 307 308 301 294 292 293 293 293 292 290 291 292 292 292 290 290 290 291 290 290 290 290 290 290 290 290 290 291 291 291 291 291 291 291 291 291 291 290 290 290 291 291 291 291 291 291 291 291 291 291 291 291 291 291 291 291 290 290 290 289 289 288 288
302 303 302 303 303 303 303 302 302 301 300 299 300 302 302 301 302 303 304 302 301 302 303 304 302 295 292 293 292 292 292 291 291 291 291 292 292 290 289 290 290 290 290 290 290 289 290 290 290 290 291 291 291 291 291 291 290 290 290 290 290 290 290 290 290 290 290 290 290 290 290 289 289 290 290 290 291 291 290 290 290 289 289 288 288 287
301 301 300 301 301 301 300 300 299 298 298 297 299 302 303 302 302 303 302 298 297 297 298 298 296 293 292 292 291 291 292 291 291 291 291 292 292 290 290 290 290 290 290 290 290 289 289 290 290 290 290 290 290 290 290 290 290 290 290 289 290 290 290 289 289 289 290 289 289 289 289 289 288 289 289 290 290 290 290 289 289 289 288 288 287 286
299 298 298 299 299 298 298 299 298 297 297 297 297 297 298 299 299 298 297 295 295 295 293 293 293 293 292 292 291 291 291 291 291 291 291 292 292 290 289 290 290 290 290 290 289 289 289 289 289 290 290 290 289 289 289 289 289 289 289 289 289 290 289 289 289 289 289 289 288 289 289 288 288 288 289 289 289 289 289 289 288 288 287 287 286 286
297 297 297 298 299 298 298 299 297 296 296 296 295 295 295 295 296 296 296 295 294 293 292 291 293 293 291 292 292 291 291 291 290 290 291 292 292 291 290 290 289 290 290 289 289 288 288 288 289 289 289 289 289 288 288 288 288 288 287 288 289 288 288 288 288 289 289 288 288 288 288 288 288 287 288 288 288 288 288 288 288 287 287 286 286 286
297 297 297 297 298 297 297 297 297 296 298 298 297 296 295 294 294 295 296 295 293 292 292 292 292 293 292 291 292 291 291 290 289 290 292 292 291 291 290 290 290 290 289 289 288 288 288 288 288 288 288 288 287 287 287 287 286 286 286 287 287 287 286 287 288 288 288 287 287 287 287 288 288 287 287 287 287 287 287 287 287 286 286 286 285 285
296 297 297 296 297 298 298 298 299 299 300 300 297 295 294 294 294 294 295 294 291 289 291 292 293 293 292 291 291 291 290 289 288 289 291 291 290 290 290 289 289 289 288 288 287 287 287 287 287 287 287 286 286 286 286 285 284 284 285 285 285 284 285 286 287 287 287 286 286 286 286 287 287 287 287 287 287 287 287 286 286 286 285 285 285 285
296 297 298 297 298 298 298 298 299 299 300 300 296 294 294 293 293 294 295 295 291 288 290 292 293 292 292 291 291 290 289 288 288 289 290 289 289 289 289 288 288 287 287 287 286 286 286 286 286 286 285 285 285 285 284 283 283 283 283 283 283 283 284 285 286 286 286 285 285 285 286 287 287 287 287 286 286 286 286 286 285 285 285 284 284 284
295 295 297 298 297 296 296 297 296 296 298 298 295 294 294 292 291 293 295 295 291 289 291 293 293 292 292 291 291 290 290 290 289 289 289 288 288 288 287 287 287 287 286 286 285 285 285 285 285 284 284 284 284 283 282 281 281 281 281 281 281 281 282 283 284 284 283 283 284 285 286 287 287 287 287 286 286 286 285 285 285 284 284 284 284 283
297 296 295 295 295 294 295 295 294 295 297 296 294 294 293 291 290 292 293 292 289 289 292 294 293 293 292 291 291 290 290 290 289 289 289 288 287 287 286 286 286 285 285 285 284 284 284 283 283 283 283 283 282 282 281 280 280 280 280 280 280 280 281 281 281 280 280 281 283 285 285 285 286 286 286 286 286 285 285 284 284 284 284 283 283 282
297 295 294 294 293 293 294 294 293 294 294 293 293 292 290 290 292 294 293 291 289 289 292 293 293 293 292 291 291 290 289 289 289 289 288 287 287 286 285 285 284 284 284 284 283 283 282 281 281 281 281 281 281 280 279 279 279 278 278 278 279 279 279 279 278 277 278 280 283 284 284 284 284 285 285 285 285 284 284 284 283 283 283 282 282 281
294 293 294 295 293 291 292 293 293 293 292 290 290 291 291 293 295 294 291 290 289 290 291 292 292 292 291 290 290 289 288 288 288 287 287 286 286 285 284 284 283 283 282 282 282 281 281 280 280 280 279 279 279 278 278 277 277 277 277 277 277 278 277 277 276 275 276 279 282 282 281 282 282 283 284 284 284 283 283 283 282 282 282 281 281 280
293 292 293 293 292 291 291 292 294 295 294 290 289 290 292 292 291 289 288 289 289 290 291 291 291 291 291 290 289 289 288 287 287 286 285 285 285 284 283 283 282 281 281 281 280 280 279 278 278 278 278 277 277 276 276 276 276 276 276 276 276 276 275 275 274 274 275 278 279 278 278 279 280 281 282 283 283 283 282 282 281 281 281 280 280 279
292 293 292 291 291 292 292 292 293 293 292 289 288 289 289 289 288 288 288 288 289 289 290 290 290 290 290 289 289 288 287 286 286 285 285 284 284 283 282 282 281 280 280 280 279 279 278 277 276 276 276 276 275 275 275 275 275 275 275 274 274 274 273 273 272 273 275 276 276 276 276 276 277 279 281 281 282 282 281 281 281 280 279 279 279 278
291 291 290 290 291 290 290 290 289 289 289 289 289 289 288 289 289 288 288 289 289 288 288 289 289 289 289 288 287 287 286 285 285 284 284 283 282 282 281 280 280 279 279 278 278 277 277 276 275 275 274 274 274 274 274 274 273 273 273 273 273 272 271 271 271 272 273 273 273 273 273 274 275 277 279 280 281 281 281 281 280 279 279 278 278 278
290 289 288 288 289 289 288 288 288 288 289 288 288 288 288 288 288 288 288 288 288 287 287 288 288 288 287 286 286 286 285 284 284 283 282 281 281 280 280 279 279 278 278 277 277 276 275 274 274 273 273 273 273 273 273 273 272 272 272 271 271 270 270 270 270 271 271 270 270 271 271 272 274 276 278 279 280 280 280 280 279 279 278 278 278 278
290 289 288 288 288 288 288 288 288 288 288 288 288 288 288 287 287 287 287 287 287 287 287 287 287 286 286 285 284 284 283 283 282 281 280 279 279 279 278 278 277 277 276 276 275 275 274 273 273 272 272 272 272 272 272 271 271 271 270 270 269 269 268 268 268 269 268 268 268 269 270 271 273 274 276 278 279 279 279 279 279 278 278 278 278 278
289 289 289 289 289 288 288 288 288 288 287 288 288 287 287 287 287 287 286 286 287 287 286 285 284 284 283 283 282 281 281 280 280 279 278 278 277 277 276 276 275 275 275 274 274 273 273 272 272 271 271 271 271 271 270 270 269 269 269 268 268 267 267 267 267 267 267 267 267 268 269 271 272 274 276 278 279 279 279 279 279 279 279 279 279 279
289 289 288 288 289 288 288 288 288 288 288 288 288 287 288 287 286 287 287 287 286 285 284 283 283 281 280 279 279 279 279 278 277 277 276 276 275 275 275 274 274 274 273 273 272 272 271 271 271 270 270 270 270 269 269 268 268 267 267 266 266 266 266 265 265 265 265 266 267 268 269 271 273 274 276 277 278 278 278 279 279 279 279 279 279 279
289 289 289 288 288 288 288 288 288 288 287 287 287 288 288 286 285 286 286 285 283 281 280 280 280 279 278 277 276 276 277 276 276 275 275 274 274 274 273 273 273 272 272 271 271 270 270 270 269 269 268 268 268 267 267 266 266 266 265 265 265 265 264 264 264 265 265 265 266 267 269 271 272 273 275 276 277 277 278 278 278 278 279 279 279 279
Wind_Speed
3 3 3 5 9 12 11 11 13 11 5 4 4 5 8 9 9 9 11 10 4 6 8 12 20 19 15 16 13 14 13 11 15 17 18 16 13 13 15 18 19 18 19 16 19 24 23 22 23 24 26 27 28 30 32 33 36 39 39 40 41 41 41 41 41 41 41 42 40 39 40 44 44 44 44 46 47 47 47 46 45 45 44 43 43 42
3 5 7 11 13 10 6 4 6 6 6 6 5 7 8 7 12 12 12 13 4 3 6 9 18 20 14 15 14 13 14 17 17 15 17 20 17 14 15 21 21 16 15 13 15 18 18 19 21 22 23 24 25 28 31 34 37 38 39 41 41 40 41 44 45 45 45 47 46 44 46 46 44 44 46 47 49 49 47 47 46 45 45 44 44 42
2 5 12 15 10 2 3 2 2 5 7 7 4 6 7 5 10 12 10 11 4 2 6 8 16 17 12 15 17 17 17 17 15 11 14 18 19 18 17 16 15 15 17 15 13 13 12 15 18 18 20 23 25 27 30 33 35 36 38 40 39 40 42 45 45 46 46 46 44 41 40 39 37 39 43 43 44 46 45 45 45 45 45 44 43 42
3 7 13 12 7 3 4 3 3 5 6 6 5 5 8 6 7 8 5 5 4 3 6 10 15 14 11 15 16 17 15 12 14 14 14 16 20 22 16 10 11 16 19 17 13 12 12 12 12 13 17 20 22 25 27 30 33 35 38 40 40 40 42 44 44 44 42 39 37 34 31 31 32 33 36 36 37 41 42 42 43 44 44 44 43 42
7 8 5 4 5 8 7 5 4 7 7 6 6 6 10 12 10 10 7 6 6 5 6 8 13 10 6 9 9 7 6 7 11 14 16 17 18 16 13 12 16 15 13 15 15 16 14 9 6 10 14 16 20 25 28 30 33 36 39 40 41 41 42 43 43 43 39 35 34 31 25 25 26 26 29 32 34 36 38 40 43 44 44 44 43 42
9 6 4 4 3 6 5 6 7 9 7 5 6 12 16 15 12 12 9 8 6 4 4 5 7 8 1 3 6 5 4 7 9 12 17 15 10 9 11 15 16 10 7 10 13 15 13 8 5 7 11 15 21 27 29 31 34 36 37 38 39 39 40 41 42 42 41 38 37 35 31 29 29 27 31 38 39 39 42 45 47 46 46 45 44 44
5 3 3 4 4 6 5 7 8 8 5 7 6 11 14 12 10 10 8 4 2 4 3 4 1 8 4 3 7 7 6 11 12 13 14 10 8 9 10 12 12 11 8 8 10 12 11 8 6 6 12 18 23 26 27 28 31 32 32 33 36 37 38 39 40 42 42 41 40 41 39 37 35 34 37 42 42 44 47 47 47 48 47 46 46 46
4 0 4 4 5 6 5 6 6 9 5 7 5 6 8 8 7 5 3 3 4 3 3 2 4 7 10 5 7 8 8 12 15 14 11 9 9 11 11 11 11 11 9 8 10 11 10 7 6 9 14 17 20 21 20 22 26 27 27 29 32 35 36 37 39 42 44 43 42 42 40 37 38 36 35 36 39 42 43 42 43 45 46 46 46 45
4 4 5 6 5 4 6 5 6 11 6 6 3 5 5 4 4 4 4 4 2 4 4 3 5 3 11 6 3 2 6 10 14 13 11 10 8 9 11 11 10 9 8 7 9 10 9 7 8 12 14 13 14 15 15 17 20 22 23 25 28 31 33 34 37 40 43 43 42 42 39 36 35 32 29 31 34 36 36 37 38 40 42 44 44 44
1 4 7 8 5 6 7 4 8 12 7 4 4 5 4 3 2 3 3 2 2 4 5 4 4 2 11 7 3 2 3 7 10 9 9 9 8 9 9 10 10 9 7 7 7 9 9 8 12 14 13 12 10 9 9 11 13 17 20 22 25 28 29 31 35 38 40 40 39 39 39 36 32 29 27 27 30 32 34 35 36 37 39 41 42 43
2 1 3 5 5 5 5 3 5 9 5 1 5 4 5 4 4 3 1 3 3 6 5 7 9 5 7 5 3 3 4 5 4 7 9 8 9 10 8 9 11 9 8 7 6 8 8 8 10 13 13 12 10 6 4 6 9 13 17 21 23 26 27 29 32 35 37 37 37 38 38 37 34 31 30 29 31 32 33 34 35 37 38 39 41 42
1 2 2 4 4 4 4 1 1 1 3 4 4 3 4 4 4 4 4 3 2 6 5 7 9 7 6 6 1 3 6 5 6 7 10 10 11 12 10 9 10 8 8 9 8 9 9 8 8 10 12 13 10 6 2 2 6 10 14 18 21 23 25 27 29 32 34 36 37 37 36 37 35 34 34 35 35 36 37 37 36 36 37 38 39 40
2 5 4 3 2 5 5 1 3 3 5 4 3 3 2 4 3 3 3 1 3 7 5 6 6 4 10 11 5 9 15 14 9 7 9 11 10 11 10 9 8 8 9 8 8 8 8 9 7 7 8 10 9 6 3 1 4 8 12 16 20 23 25 28 30 33 35 37 38 38 37 37 36 36 38 38 38 39 40 39 39 39 39 39 40 42
4 5 1 1 3 4 8 5 3 2 4 5 5 4 3 1 2 3 3 2 4 6 3 4 5 3 9 9 7 12 15 13 8 6 8 9 9 9 9 8 8 9 9 7 7 7 7 8 7 4 5 6 5 4 2 1 3 6 10 14 18 22 24 28 31 34 37 38 39 38 38 38 37 38 39 39 38 39 40 41 41 43 43 44 45 47
3 7 4 5 3 5 10 8 6 4 4 5 5 5 4 4 4 4 4 4 6 5 3 1 4 4 6 5 6 10 10 8 7 8 7 6 7 7 7 8 8 9 8 7 7 8 7 7 7 5 4 5 3 2 2 4 5 8 11 14 18 21 23 27 30 34 37 39 39 38 38 38 38 38 38 38 38 39 41 41 42 43 44 45 47 48
4 8 6 2 0 8 9 5 5 7 2 2 3 4 3 5 4 3 5 6 6 5 4 2 3 5 5 7 11 11 11 10 10 10 8 7 5 4 5 7 7 8 8 8 7 8 8 7 6 5 6 5 4 2 4 6 8 10 13 16 20 22 25 28 30 33 36 38 38 39 40 39 38 37 36 37 37 38 40 41 42 43 44 45 44 45
3 6 4 1 1 6 7 3 4 5 2 1 3 3 4 4 5 3 6 4 3 6 6 5 7 7 5 10 12 10 10 9 8 8 6 6 3 5 6 7 7 9 8 7 7 7 8 8 8 11 12 9 6 4 5 7 9 12 14 18 21 23 26 28 31 33 34 35 36 38 39 39 39 38 37 37 37 37 38 39 40 41 42 42 42 41
3 5 4 3 3 5 4 1 3 4 4 5 3 4 2 2 3 2 3 2 3 7 5 6 12 11 6 8 8 9 12 10 6 6 3 4 6 4 4 6 7 8 8 9 10 11 12 12 13 17 19 17 14 11 10 9 9 12 14 17 20 24 26 29 31 33 33 34 35 36 37 38 39 40 40 39 38 37 37 38 40 40 40 40 40 40
0 3 4 3 4 3 2 1 4 5 1 3 3 1 1 1 2 2 1 1 5 8 5 6 11 10 7 9 10 13 19 15 6 5 7 8 7 4 4 7 8 9 10 12 13 13 13 13 14 19 24 26 24 21 18 16 14 13 14 16 18 21 23 25 27 30 32 34 35 36 37 39 40 40 40 40 38 38 39 40 41 41 41 41 40 41
2 2 4 2 3 0 2 1 5 5 2 3 1 1 1 2 4 4 2 2 4 8 8 8 9 7 6 7 10 15 20 17 7 4 8 10 7 7 8 9 11 12 12 13 13 13 14 14 18 23 26 28 29 27 25 23 20 19 19 19 19 20 21 22 24 27 29 32 34 35 36 38 40 41 41 40 39 39 40 41 41 41 41 40 40 41
1 4 6 4 1 1 1 5 7 7 4 2 3 2 2 3 2 3 3 3 5 7 8 9 9 6 4 5 10 16 17 13 6 4 6 8 9 11 11 11 11 11 12 13 12 13 14 15 20 27 30 31 32 33 33 31 28 26 25 24 23 23 22 22 23 24 26 29 30 33 36 38 39 39 40 40 40 41 42 41 41 41 41 40 40 41
2 4 5 4 3 5 8 8 7 8 6 5 5 5 6 5 3 6 7 6 6 6 6 8 9 6 3 4 8 12 12 9 10 8 6 10 14 14 13 12 11 11 12 12 11 12 13 13 19 26 31 33 34 34 35 35 34 33 32 30 27 25 24 24 24 24 25 27 28 32 35 35 35 37 38 39 40 42 43 43 43 43 42 42 42 41
2 2 4 6 7 9 11 8 6 6 5 2 3 4 5 4 4 7 9 7 6 5 4 7 9 6 4 7 8 9 10 11 15 15 12 12 13 14 14 14 13 13 12 12 12 12 12 13 19 24 28 30 31 33 34 35 35 35 35 34 31 27 27 27 27 26 27 28 30 33 33 33 33 33 34 37 40 43 44 44 44 44 44 44 44 43
1 1 3 7 7 6 8 8 5 3 5 1 2 3 4 3 3 7 6 4 4 4 4 7 8 4 2 6 6 7 11 14 16 14 12 11 11 13 14 15 14 14 14 15 14 13 12 15 20 21 23 25 27 29 31 32 33 33 33 33 32 30 30 29 29 29 29 30 33 34 33 35 34 33 34 37 40 43 44 44 43 43 44 44 44 44
2 1 3 5 5 4 4 6 5 1 2 2 3 4 5 5 6 7 4 3 2 5 8 9 7 4 3 4 7 13 14 14 14 13 13 12 12 12 13 13 13 14 15 16 16 16 15 16 16 16 19 22 24 26 27 28 29 30 30 31 31 31 31 32 31 30 30 31 33 34 34 36 36 36 38 40 42 44 44 42 42 43 43 44 44 44
2 2 3 4 6 6 6 5 3 2 1 2 2 3 4 4 6 5 4 4 5 6 9 9 7 6 6 5 11 15 14 12 12 12 12 12 11 12 11 12 12 13 15 16 17 16 16 15 14 16 19 22 23 25 26 27 28 28 29 30 32 32 33 33 32 32 31 30 32 33 35 35 35 37 41 42 45 45 43 40 39 39 40 42 43 43
1 2 5 8 10 9 9 7 5 6 7 7 7 7 7 6 6 4 3 6 8 7 8 10 11 12 10 6 10 11 11 12 11 11 12 11 11 11 11 11 12 11 12 13 14 14 15 16 16 17 21 24 26 27 28 28 29 30 31 31 33 35 34 33 33 33 32 31 31 32 33 34 35 38 41 43 44 44 41 39 39 39 40 40 41 42
1 3 6 10 12 10 11 12 11 10 10 10 11 11 11 10 8 7 8 9 9 8 8 9 12 15 10 4 8 8 9 9 9 10 10 9 9 9 9 11 13 14 14 14 14 15 15 15 15 16 21 25 28 30 31 30 30 31 30 30 33 35 35 35 35 34 33 32 30 31 33 34 35 38 40 42 42 41 40 39 39 41 42 41 42 43
2 5 6 10 13 11 11 12 9 7 8 7 9 11 11 12 12 13 15 13 10 10 10 12 16 17 7 5 6 7 8 8 7 6 6 6 7 8 9 11 12 13 14 15 15 14 13 14 13 14 18 23 26 29 30 31 31 32 32 32 34 36 36 36 36 35 35 33 32 32 33 34 35 37 39 40 40 40 39 39 39 40 40 41 43 44
2 4 4 6 10 8 8 9 7 7 8 8 10 10 9 12 15 16 16 14 13 15 15 16 18 12 2 4 3 3 4 6 5 3 3 4 6 8 10 11 10 11 12 13 14 14 13 13 13 13 16 21 24 27 28 29 31 32 32 33 35 37 37 37 34 33 34 33 34 34 33 32 33 35 37 38 39 39 39 39 39 38 40 41 43 42
2 3 3 4 6 8 9 9 9 9 9 10 11 10 11 15 16 16 15 13 14 16 14 14 13 5 4 3 2 1 1 3 5 5 4 4 6 8 9 11 11 10 10 11 12 13 13 14 14 14 15 19 24 27 27 29 31 32 31 33 35 37 38 37 34 33 33 33 36 37 36 34 32 33 35 36 37 38 38 38 37 38 39 41 41 40
2 2 5 5 6 8 9 11 10 9 9 12 13 14 17 17 15 15 10 5 7 9 9 10 8 1 2 0 1 2 1 2 4 5 4 3 4 7 8 10 11 11 11 11 11 12 13 15 15 14 16 21 25 27 28 30 31 31 32 35 36 37 37 36 35 35 34 34 37 38 37 35 33 31 32 34 35 36 37 36 36 37 38 39 39 39
2 3 3 4 5 7 11 11 7 6 9 12 11 11 15 15 15 15 7 2 2 4 3 5 2 2 1 2 2 3 4 4 5 5 4 4 3 5 7 9 10 11 11 11 11 11 12 13 14 17 20 23 25 27 29 30 30 30 32 35 37 37 36 35 34 34 33 34 36 37 37 36 34 31 31 31 32 33 33 33 34 36 36 37 37 37
4 6 5 4 4 8 12 9 5 5 11 10 4 3 6 7 9 9 3 3 2 1 2 2 2 3 1 2 2 4 5 5 5 6 5 4 2 4 7 8 9 9 10 10 10 11 10 12 15 19 22 24 26 28 30 31 30 31 32 34 34 34 34 34 33 32 32 34 36 37 38 38 35 33 31 30 29 28 28 30 32 33 34 34 34 35
7 8 6 4 4 6 8 6 5 10 9 2 2 1 0 3 5 4 4 5 4 5 5 3 2 2 3 4 4 4 6 5 6 8 7 4 3 4 7 8 8 9 9 9 10 10 11 13 16 19 21 24 27 28 29 30 30 32 34 34 33 32 31 32 32 30 30 32 35 37 38 38 37 35 33 30 26 25 25 27 29 30 31 31 32 34
10 8 4 3 3 2 2 4 7 7 1 2 1 2 2 5 7 6 2 4 6 5 4 2 3 4 5 6 6 5 6 6 6 7 6 5 5 4 6 8 9 8 8 9 10 11 13 16 18 19 21 25 27 27 28 29 30 32 34 33 32 32 31 30 30 29 29 32 34 36 38 38 37 36 34 30 26 23 23 24 26 27 28 29 30 32
9 6 3 3 4 3 4 7 7 6 4 4 2 1 2 3 3 2 0 3 4 2 2 3 5 6 6 6 6 5 5 5 5 4 4 5 4 4 5 8 9 9 10 10 12 15 17 19 20 21 23 25 26 27 28 29 30 31 32 32 31 31 31 29 28 28 29 32 34 36 38 37 36 35 34 31 27 24 24 23 24 24 25 26 27 28
10 8 6 5 5 4 4 5 5 6 6 4 3 3 3 3 3 2 1 2 3 3 5 6 7 7 7 7 6 5 4 4 5 4 3 5 4 4 6 8 10 11 12 13 15 18 19 21 21 21 22 23 24 26 27 29 31 30 30 30 30 31 30 28 27 28 29 33 36 37 38 37 35 33 31 29 27 26 25 23 23 23 23 25 26 27
8 8 7 5 4 3 3 4 4 6 5 2 5 6 3 2 4 3 1 1 3 3 6 8 8 8 7 7 6 3 2 4 6 5 4 4 4 5 7 8 10 13 15 16 18 19 20 22 22 22 21 21 22 25 26 28 30 29 28 29 29 29 28 27 27 29 31 34 36 37 38 37 36 34 31 28 27 26 25 23 22 22 23 24 26 26
2 4 5 5 5 4 5 6 4 4 3 3 6 5 3 2 4 2 4 2 3 4 6 8 8 8 6 6 5 4 3 5 5 6 6 6 5 6 8 9 10 12 15 18 20 21 22 23 22 21 21 21 23 24 25 26 27 27 27 29 29 27 27 27 29 31 33 36 36 36 36 36 36 35 32 29 27 26 24 22 21 21 22 23 25 24
1 1 2 4 5 6 7 7 4 4 3 4 6 6 4 2 2 3 7 3 3 4 5 7 8 8 6 6 5 5 7 8 6 7 8 8 8 8 9 12 15 16 18 20 22 22 21 21 21 21 23 24 24 25 25 24 24 25 26 28 28 28 29 31 32 33 35 36 35 34 35 35 35 34 33 30 28 25 23 21 20 21 22 23 23 22
1 1 1 3 4 4 5 5 4 5 3 3 4 6 3 3 1 5 5 2 1 4 4 6 8 8 7 7 7 7 8 8 7 8 8 9 11 10 9 12 14 17 20 22 23 23 21 20 21 23 25 26 26 26 27 25 24 25 25 25 27 30 31 33 34 35 37 35 33 32 34 35 35 34 33 31 27 25 24 21 19 20 21 21 22 21
3 2 2 3 3 1 2 3 3 4 2 3 1 2 1 3 4 4 2 2 4 5 5 5 6 7 7 7 8 9 9 9 9 9 9 10 11 10 10 11 12 15 19 20 23 24 21 19 21 24 27 28 28 28 27 25 25 26 25 25 29 30 32 34 36 37 37 34 32 32 34 34 35 34 32 30 28 25 24 22 20 20 20 21 21 20
2 3 3 4 2 2 3 5 5 4 4 3 3 1 4 6 5 2 3 6 6 5 5 5 6 8 8 8 9 10 9 9 10 9 9 10 10 10 11 12 13 16 19 20 23 24 21 19 21 24 29 32 33 31 28 25 25 26 27 29 30 30 31 34 37 38 37 34 33 34 34 34 35 34 32 30 28 26 25 23 21 19 20 20 20 19
3 5 4 4 3 4 5 7 5 3 4 5 4 5 9 11 7 4 5 6 6 5 5 4 6 8 8 8 9 9 9 9 10 9 9 10 10 10 12 14 16 18 20 23 25 24 20 19 22 25 30 34 36 33 29 26 25 27 31 33 31 30 33 35 36 36 35 35 36 36 35 35 36 35 33 31 27 26 26 25 22 20 20 20 20 19
4 3 3 2 4 3 5 8 6 4 8 11 10 10 9 8 7 5 6 6 6 6 5 5 6 8 7 7 7 8 9 9 9 9 9 9 10 12 13 15 18 21 21 23 25 25 23 22 24 26 28 34 38 36 32 29 27 29 33 35 33 33 35 35 34 33 33 35 38 38 37 36 35 34 32 30 28 28 28 27 25 22 21 20 20 20
4 3 4 4 7 6 8 8 5 6 11 12 11 11 9 6 7 6 5 6 7 8 7 6 7 8 7 6 7 8 9 9 8 9 9 8 10 13 13 13 17 21 23 24 26 26 25 24 25 25 26 31 39 40 36 36 35 34 35 35 34 35 36 35 33 33 33 35 37 37 37 35 33 32 31 30 28 28 29 29 27 24 22 21 21 20
3 4 4 7 10 9 11 12 8 8 12 10 8 9 8 8 9 8 6 7 7 7 7 5 5 5 5 5 5 5 7 9 8 8 9 9 10 12 12 13 16 20 24 28 28 26 24 24 25 26 26 30 38 41 40 40 41 40 37 37 36 34 34 35 34 34 36 38 36 35 35 33 32 32 31 29 28 27 28 28 28 27 26 27 26 24
2 3 4 4 7 9 11 12 10 10 10 10 9 10 9 9 10 10 8 7 6 6 6 4 3 4 4 4 3 3 6 10 9 7 7 10 12 12 12 15 18 22 26 29 29 27 26 26 27 28 29 33 39 40 40 42 43 42 38 36 35 33 33 36 36 36 38 39 35 33 31 30 30 30 29 28 28 28 29 30 31 31 31 32 32 31
4 6 4 3 5 9 9 10 10 9 8 9 10 10 7 6 6 6 6 5 3 3 3 4 4 4 4 4 3 3 6 10 9 8 8 9 12 14 16 18 21 23 27 29 30 29 29 29 29 29 31 36 39 38 40 43 45 44 39 35 33 32 32 34 35 35 36 35 32 30 28 26 26 27 26 26 26 27 29 31 32 33 33 32 32 33
7 9 8 5 8 11 11 12 10 6 6 10 10 6 2 1 1 2 3 2 2 1 2 3 5 6 6 5 5 5 7 9 10 9 8 10 15 19 21 21 21 22 27 29 28 27 29 31 31 30 32 36 38 38 40 43 46 45 40 35 32 31 32 33 33 32 32 30 28 28 27 25 25 26 25 25 26 25 26 26 28 30 33 32 30 29
Wind_Direction
128 141 168 203 216 222 220 210 223 245 285 297 277 264 263 273 272 262 270 265 240 272 260 254 272 277 275 277 272 271 275 264 260 268 273 274 270 266 267 269 266 260 261 270 277 276 271 266 261 256 253 248 243 239 233 228 223 221 219 216 215 213 210 206 203 202 200 200 201 202 206 211 213 213 213 215 217 219 220 220 220 220 220 220 220 219
101 168 219 224 221 226 231 227 251 282 310 288 264 275 271 260 270 267 267 273 252 243 254 245 272 277 274 279 275 266 267 262 255 255 269 277 274 266 260 263 267 269 274 280 278 274 271 267 260 253 248 239 234 233 229 225 223 220 217 216 214 210 206 206 205 203 202 203 202 202 206 209 209 209 209 212 215 216 218 219 218 218 219 219 219 219
121 207 234 233 229 274 353 33 259 256 257 262 253 280 281 254 274 272 254 271 275 221 272 275 273 276 273 269 264 257 253 257 264 252 252 268 274 267 257 260 275 285 283 278 278 284 281 270 262 252 243 238 235 234 231 227 223 218 216 215 213 208 206 206 206 204 204 206 205 205 207 207 206 207 209 211 213 214 216 216 216 217 217 218 218 219
193 237 237 234 222 230 270 258 257 274 253 235 223 259 274 258 269 272 251 295 318 236 270 286 283 281 265 257 258 258 258 262 269 259 246 250 256 261 269 280 277 274 279 288 295 293 285 275 268 255 246 244 240 235 232 226 220 216 216 215 211 209 208 206 205 205 205 205 204 206 209 206 205 208 209 210 213 215 215 215 215 216 216 217 218 219
236 244 213 172 174 194 233 252 245 266 258 223 203 222 256 256 248 252 271 331 336 284 284 300 297 289 241 238 256 274 286 265 255 258 253 246 249 266 291 284 265 263 276 290 293 288 287 295 293 265 254 249 242 237 233 228 223 220 218 216 212 209 207 205 204 202 201 200 198 198 200 199 201 204 204 206 211 212 212 214 214 215 216 217 219 220
256 248 150 132 157 160 193 239 225 225 252 265 213 216 237 253 255 259 286 338 353 311 327 5 323 299 177 174 258 295 309 268 248 248 252 259 268 276 278 272 273 280 265 263 275 282 291 316 332 278 252 245 242 242 241 235 229 225 221 217 212 208 206 204 202 199 197 196 194 191 189 188 190 193 199 204 206 205 209 213 214 215 215 216 217 219
258 272 121 167 173 139 169 245 231 195 234 283 238 213 228 247 259 264 283 320 309 266 301 60 12 285 283 176 233 246 247 260 257 251 258 277 285 269 262 269 281 289 279 270 278 284 291 311 325 280 251 246 248 251 250 241 234 229 223 217 211 208 206 203 200 197 195 194 194 194 195 194 194 196 203 206 206 206 210 212 212 213 213 214 215 216
215 151 76 116 133 147 190 250 221 163 179 265 245 193 212 236 247 239 232 230 242 285 299 152 155 271 284 233 207 220 226 256 266 266 273 272 267 272 273 272 276 284 295 299 289 286 287 290 285 271 265 260 261 267 261 246 238 232 226 220 214 210 207 203 200 197 196 195 195 197 199 202 203 204 207 206 205 208 209 208 209 210 210 211 213 214
175 179 172 145 127 168 204 222 176 152 180 250 204 143 174 210 217 167 158 205 277 342 305 233 155 248 283 259 161 198 225 249 268 276 283 279 274 277 278 283 288 285 280 270 273 284 289 288 283 285 290 289 282 281 270 252 243 233 227 223 215 211 208 204 200 198 198 198 197 198 200 204 208 210 211 207 204 206 206 206 207 208 208 208 210 212
205 208 184 151 151 204 215 204 162 161 195 232 131 97 71 74 75 105 148 149 38 325 266 210 157 230 284 274 122 84 234 246 274 285 282 284 283 274 279 296 300 293 278 258 259 276 284 290 300 307 315 319 311 296 276 254 241 231 223 218 213 211 208 205 202 200 200 200 200 200 201 204 207 208 209 207 203 204 204 204 205 206 207 207 207 210
233 206 154 158 187 194 177 154 167 174 190 74 83 49 17 25 38 53 74 92 67 290 251 189 184 199 287 295 142 176 213 205 265 298 293 296 299 294 301 305 302 305 306 309 308 298 293 292 312 333 342 343 342 329 284 238 225 221 216 211 209 208 207 206 204 202 202 202 203 204 204 205 205 203 203 200 199 201 201 201 202 204 206 207 207 208
240 175 206 240 215 152 130 139 282 132 91 63 68 46 3 332 9 29 356 55 131 263 253 194 185 177 241 269 213 261 275 241 232 265 281 289 298 303 311 308 306 314 321 330 330 320 320 320 338 357 354 352 356 352 329 217 205 208 208 206 204 203 204 205 204 203 204 204 206 208 208 208 207 204 203 200 199 199 199 200 201 202 204 205 206 207
276 216 236 283 232 160 145 179 328 23 86 105 121 93 17 316 342 359 315 82 191 252 248 195 180 188 245 261 283 288 286 278 257 236 251 266 279 292 301 304 312 321 323 324 322 329 334 325 337 0 348 351 1 359 351 255 200 199 203 203 202 201 202 203 204 205 205 207 209 211 211 211 210 208 207 206 203 202 200 200 199 199 201 202 203 206
295 280 243 178 261 186 150 162 240 231 155 148 155 150 141 186 263 268 260 269 265 270 267 189 178 234 270 269 261 258 267 281 284 243 235 249 265 280 291 302 314 310 309 319 323 333 332 312 318 336 335 351 5 357 334 238 204 198 203 205 205 206 206 205 205 205 206 209 211 212 213 213 212 212 211 209 207 205 203 201 201 202 202 203 205 208
251 290 224 178 234 180 170 190 190 149 155 175 163 148 157 176 212 240 235 258 273 274 288 194 174 216 259 268 242 238 257 285 285 262 257 260 267 282 296 308 316 302 309 341 336 330 328 305 297 308 339 1 4 333 256 211 195 198 204 208 209 209 209 208 208 207 208 210 211 212 215 216 215 216 215 214 212 210 207 205 205 206 206 208 210 212
209 267 253 244 126 157 179 212 142 113 115 222 135 117 204 193 181 244 245 242 266 285 274 246 217 220 244 287 282 271 274 276 274 274 270 256 267 324 325 314 322 315 325 346 332 323 323 304 297 331 0 5 352 300 243 222 206 204 206 209 213 213 213 213 212 212 212 212 212 213 215 216 217 218 218 217 216 214 212 210 209 210 211 212 213 213
224 267 269 1 25 181 194 204 157 158 174 165 136 180 227 170 140 244 268 254 270 278 258 241 259 269 285 288 286 293 295 290 301 296 246 229 278 0 339 318 328 324 323 325 314 317 328 337 355 0 360 348 324 292 256 240 226 221 215 213 214 215 216 216 216 216 216 215 215 216 216 217 217 219 220 220 219 218 217 215 214 214 214 214 214 213
222 263 245 176 224 237 201 160 275 248 156 139 187 215 218 99 111 218 267 281 249 256 247 227 252 272 286 279 289 313 305 298 317 320 300 286 303 330 314 299 307 310 316 329 336 345 353 1 5 360 356 348 333 318 302 286 262 245 234 227 223 220 220 221 220 219 219 218 219 220 220 219 219 220 221 222 221 220 219 218 218 216 216 215 214 214
227 272 266 197 221 251 68 52 288 283 175 149 211 236 88 210 253 248 217 218 242 256 257 225 240 254 249 260 284 292 285 284 290 306 312 300 292 318 320 304 318 334 345 355 358 360 1 1 2 2 0 357 352 344 334 325 308 286 269 256 246 239 235 232 229 226 224 222 222 223 223 223 223 222 223 223 223 222 221 221 220 218 218 218 216 216
46 258 257 236 225 52 42 247 235 259 323 69 119 333 42 191 229 239 202 183 246 263 271 253 244 241 224 243 266 269 275 285 290 274 286 292 311 349 351 343 354 3 6 7 6 4 4 5 7 10 10 8 6 4 359 352 336 320 305 288 274 264 256 247 241 236 233 230 227 227 227 226 226 225 224 224 223 223 224 224 223 221 220 219 217 216
86 239 242 233 225 64 229 220 211 220 222 147 173 225 221 205 247 266 233 214 249 262 268 264 254 238 220 242 253 259 271 290 305 268 278 317 353 6 15 21 18 17 16 12 9 7 5 6 8 11 13 13 13 12 12 9 360 348 334 317 301 285 274 263 256 250 247 244 240 236 233 231 229 228 227 226 224 224 225 225 225 224 222 221 219 217
185 232 241 230 228 245 243 229 210 206 198 187 192 200 215 222 249 271 256 226 227 245 249 259 263 249 238 259 258 266 284 323 4 8 4 19 20 16 23 31 27 24 20 13 10 9 7 6 7 9 11 12 11 9 9 10 9 5 357 347 331 311 296 284 272 264 259 257 254 250 246 242 238 234 231 228 227 226 225 225 225 225 223 221 221 219
187 164 232 239 235 247 258 261 229 187 158 169 198 196 209 200 194 238 253 245 237 249 254 260 265 250 235 257 270 294 320 4 29 31 35 36 26 18 16 16 18 19 16 13 11 10 8 7 6 8 10 10 8 6 5 5 6 6 4 1 352 338 324 309 294 282 271 264 260 257 256 255 251 246 240 235 231 229 227 226 225 224 222 221 220 218
30 111 243 255 257 265 279 292 287 149 120 127 241 205 192 193 222 235 250 273 266 262 273 267 260 253 259 268 287 343 5 30 39 29 28 31 22 18 15 12 13 11 9 10 10 8 6 6 7 8 8 6 4 3 2 1 2 2 3 2 358 352 345 334 319 302 286 275 267 261 256 254 253 251 248 244 239 235 232 228 226 224 223 221 219 216
298 227 249 269 273 279 286 292 298 315 131 209 243 231 222 231 258 270 280 304 275 228 239 257 259 261 292 311 360 14 17 36 43 28 23 26 19 14 13 10 9 7 7 7 6 5 4 4 6 5 1 0 359 357 357 357 358 358 359 359 357 355 351 347 338 322 304 288 276 267 259 254 250 246 245 245 243 242 239 234 229 227 224 221 218 216
277 232 239 257 253 255 262 259 261 281 264 263 255 251 258 234 231 262 286 269 258 230 232 254 271 272 281 343 19 15 7 18 35 32 25 22 16 12 12 9 7 7 6 4 2 2 0 359 359 357 356 356 354 353 353 353 354 354 355 356 356 354 352 350 346 336 322 305 288 274 266 259 252 248 245 244 243 243 241 238 234 231 227 223 220 217
251 238 236 245 250 257 269 271 281 292 283 280 278 271 276 267 242 253 267 253 266 269 255 259 273 279 285 339 18 16 10 6 12 22 23 19 13 9 7 5 5 5 2 1 360 359 357 355 353 350 350 350 350 350 350 350 351 352 352 353 353 351 350 348 347 342 334 321 304 288 277 268 259 254 250 247 245 243 240 238 235 233 231 227 223 220
197 251 238 243 253 257 268 275 280 282 273 270 279 280 281 283 273 261 256 255 266 276 269 265 273 280 288 7 22 13 13 3 5 18 18 13 9 6 4 3 3 0 358 358 357 356 355 350 346 344 344 345 346 346 346 346 347 348 348 349 349 349 348 346 346 344 341 334 320 305 293 282 271 263 258 254 250 246 241 238 235 232 230 227 225 223
181 263 255 259 270 267 269 276 275 271 266 258 265 271 274 277 272 263 262 266 268 266 272 280 282 285 308 42 25 15 12 351 358 20 9 4 7 3 4 5 3 359 354 351 349 348 346 342 340 340 338 340 341 342 343 343 343 344 346 346 346 346 346 345 344 344 343 341 334 323 310 296 282 272 265 259 254 249 244 239 236 232 229 227 225 224
199 258 259 267 279 274 266 273 276 275 274 265 260 258 259 262 263 264 268 271 267 262 267 276 279 284 24 59 344 18 25 336 340 359 349 1 5 1 3 2 358 354 349 345 341 338 337 336 334 333 335 337 339 340 339 339 340 341 342 343 344 344 344 344 342 342 342 342 340 336 327 312 296 282 272 264 257 252 246 241 237 232 229 227 226 224
259 285 327 326 294 281 277 276 278 279 279 280 281 278 271 268 266 269 273 273 269 268 271 274 275 276 98 90 307 315 19 339 341 338 332 351 357 356 359 355 349 345 340 337 335 332 332 332 332 333 336 336 337 338 337 337 337 337 338 341 341 341 342 342 341 341 341 342 342 343 340 330 314 296 282 270 261 255 249 243 237 232 229 226 224 222
295 305 335 326 287 279 285 284 286 294 293 282 276 271 267 267 267 266 268 273 265 266 279 283 277 260 103 31 294 273 303 353 339 324 313 315 344 350 351 347 341 336 332 332 331 330 330 331 332 333 334 335 336 336 336 335 334 334 336 338 337 338 340 341 341 340 341 342 343 343 343 339 328 313 296 281 268 259 252 245 238 232 228 224 221 219
249 268 298 288 276 278 280 284 304 326 298 276 261 253 255 257 262 262 258 56 297 251 259 276 262 120 222 295 336 321 327 340 324 310 296 283 316 338 339 338 330 323 324 325 324 326 327 327 328 329 330 332 333 332 332 333 332 332 333 333 333 334 337 338 339 338 339 341 343 342 341 339 335 325 311 296 280 267 255 246 238 232 227 223 220 217
234 253 258 257 267 276 280 300 348 306 278 275 261 229 245 250 258 254 219 96 51 118 124 156 128 104 211 243 291 300 303 309 300 290 277 249 248 316 326 326 319 315 316 315 317 322 323 322 323 324 326 328 328 328 328 329 329 328 329 329 329 331 333 334 335 335 336 338 340 341 340 339 336 330 323 311 295 277 261 248 240 234 229 224 218 215
253 257 254 240 243 273 292 319 308 271 262 283 15 1 68 110 109 110 117 123 121 102 96 119 165 178 225 237 237 253 267 270 272 276 268 221 205 295 318 314 306 308 308 309 316 319 319 321 319 319 322 323 324 324 325 326 327 327 327 327 326 326 329 330 330 331 333 335 337 339 339 337 335 331 327 321 307 287 268 255 245 238 231 224 219 216
242 248 244 227 224 264 281 233 250 263 209 107 327 316 104 118 113 100 111 168 159 128 107 136 221 212 219 243 242 243 263 268 270 271 251 201 203 270 307 308 306 309 307 309 315 314 314 315 313 313 317 319 320 322 322 324 326 326 324 323 323 323 325 326 326 327 330 332 333 335 335 335 333 330 327 323 312 295 278 263 251 242 234 227 222 219
222 226 215 227 230 224 225 227 245 279 267 219 228 221 149 156 142 108 176 180 170 174 178 197 228 226 223 240 248 253 270 282 293 280 211 185 215 258 287 299 302 303 300 300 302 302 304 305 306 309 315 317 317 319 320 322 324 324 321 319 319 320 322 323 323 325 328 329 329 330 330 331 330 327 325 321 311 299 287 273 259 248 238 229 224 221
209 213 206 227 240 223 237 248 248 264 260 215 185 229 217 181 171 173 246 169 162 224 234 209 214 227 224 232 248 263 287 304 309 298 204 207 259 289 292 293 293 291 291 294 298 299 300 302 305 308 311 312 311 313 316 319 322 322 317 315 317 319 319 319 320 322 324 324 324 324 325 326 326 324 321 316 308 300 291 279 266 254 242 231 227 224
198 212 211 227 250 232 245 260 243 252 265 196 196 229 228 176 166 162 255 228 169 232 238 204 208 230 227 227 239 243 293 305 301 289 250 243 276 297 293 292 291 288 289 293 297 298 299 302 305 306 307 306 305 308 313 317 319 319 314 312 315 316 314 315 318 320 321 319 319 319 320 321 322 320 316 311 304 298 290 280 268 257 246 236 231 228
164 210 207 217 243 244 249 262 257 260 266 191 195 227 241 168 142 166 287 274 165 221 227 196 214 239 224 221 226 201 228 264 274 282 284 285 289 287 285 288 290 290 291 295 297 298 300 303 305 304 304 302 302 306 311 315 316 313 310 311 314 312 311 314 317 319 318 316 315 315 316 318 318 317 314 309 303 297 290 281 269 256 246 238 233 230
295 242 192 199 230 240 242 255 266 267 251 192 194 226 231 145 109 262 269 239 158 223 217 187 218 242 223 214 214 202 226 240 249 272 287 296 297 290 285 286 288 290 291 292 295 297 300 302 302 301 300 300 302 305 309 313 311 306 306 310 309 308 311 314 316 317 316 314 311 311 312 314 315 315 312 307 301 294 286 277 266 255 245 237 231 228
222 268 262 203 216 236 240 251 277 279 246 166 201 233 202 129 194 242 236 187 193 263 232 195 218 235 224 219 220 226 241 249 257 272 281 287 290 288 286 288 289 290 291 293 296 298 300 303 303 302 300 301 302 304 308 310 306 302 304 304 302 305 312 314 315 316 315 311 308 308 310 311 312 313 311 306 299 290 281 274 261 250 242 234 228 224
193 170 249 216 190 217 251 236 254 268 231 137 131 290 162 165 216 246 300 317 276 260 245 226 226 230 230 233 235 240 248 254 261 269 272 277 281 283 284 286 286 286 288 290 291 293 298 303 303 301 301 302 302 302 306 307 303 301 301 298 299 307 313 313 314 315 312 307 305 306 308 308 308 309 307 303 296 285 277 270 257 246 238 230 224 220
217 176 224 240 206 167 207 222 220 225 225 186 146 193 243 244 248 269 309 293 275 246 228 232 238 236 231 234 244 248 249 252 258 265 270 273 277 280 283 285 285 286 288 288 287 290 296 300 299 300 300 300 300 301 303 304 303 301 298 297 303 311 312 311 313 313 308 304 303 305 306 305 305 303 301 298 291 279 270 263 252 241 233 226 221 217
224 188 204 245 238 180 197 234 233 212 247 258 245 243 257 269 273 227 214 251 267 245 218 224 247 249 235 227 240 249 248 250 257 263 269 274 279 282 284 286 287 287 289 288 288 290 296 298 297 297 297 297 297 299 300 302 302 298 296 300 307 312 310 310 311 307 303 302 303 304 304 303 301 298 295 292 284 271 263 257 246 235 226 219 215 213
239 184 153 231 262 248 242 246 244 260 274 272 271 270 266 269 272 243 209 228 251 248 237 231 244 255 245 219 223 238 247 254 263 268 271 277 282 283 284 288 290 290 290 289 290 294 299 300 297 295 295 296 297 297 299 300 299 294 295 300 307 309 309 309 306 301 299 299 300 301 302 300 298 295 292 287 278 267 260 253 244 234 223 214 211 213
253 174 156 225 251 259 259 248 225 240 261 264 271 279 276 261 260 250 223 230 249 259 263 249 241 254 250 217 215 237 253 262 270 275 279 283 282 282 285 288 289 290 289 287 290 296 301 301 296 294 294 294 295 296 299 300 297 295 296 300 304 307 307 305 302 299 297 296 297 298 298 296 293 292 289 283 275 265 258 251 243 235 224 214 209 210
237 154 176 231 241 241 254 261 256 250 259 265 269 274 277 271 266 263 253 250 258 267 271 257 236 244 246 233 231 245 263 270 272 276 285 288 283 283 285 284 284 287 288 288 291 295 297 295 292 292 292 290 291 295 298 297 296 296 298 300 303 306 305 302 300 299 297 295 294 293 292 290 289 288 285 280 272 263 255 248 239 232 228 221 214 210
204 165 178 215 239 245 255 265 268 268 271 270 257 251 256 262 266 269 272 270 268 274 284 294 268 246 250 267 270 257 265 273 275 275 280 283 283 284 283 283 287 288 287 288 292 294 293 290 289 290 290 288 291 295 296 296 295 296 297 299 301 304 303 300 298 297 295 294 292 289 287 285 284 283 281 278 273 265 258 251 243 236 235 233 226 222
200 227 219 180 232 252 253 251 254 262 270 267 260 256 254 254 255 265 280 296 306 304 316 320 299 279 265 263 257 248 262 271 277 278 276 274 277 280 283 287 290 289 287 289 293 294 291 288 287 288 287 288 291 295 295 294 294 295 296 298 300 301 299 296 296 294 292 291 290 287 285 282 280 279 278 276 274 269 264 259 251 243 241 240 236 232
216 231 229 218 237 252 256 254 251 245 252 263 270 278 318 45 110 239 280 325 7 32 26 341 303 296 293 278 254 240 253 269 277 279 277 276 277 280 284 287 288 287 288 292 294 294 293 292 291 289 287 289 293 294 294 293 293 294 296 299 299 298 295 291 289 289 288 288 287 286 286 284 281 280 277 274 272 270 267 264 258 249 244 242 241 238